{"data":{"norad_id":66483,"epoch":"2026-09-20T02:40:24.434688Z","epoch_age_seconds":123440,"freshness":"FRESH","line1":"1 66483U 25262AD  26263.11139392  .00008678  00000+0  32440-3 0  9996","line2":"2 66483  43.0022 277.9195 0001255 204.4235 155.6557 15.27589777 48647","mean_motion":15.27589777,"eccentricity":0.0001255,"inclination_deg":43.0022,"raan_deg":277.9195,"arg_perigee_deg":204.4235,"mean_anomaly_deg":155.6557,"bstar":0.0003244,"rev_number":4864,"period_min":94.266145380207,"perigee_km":482.15874515959,"apogee_km":483.88089552149,"semimajor_km":6861.1568203405,"source":"CELESTRAK","updated_at":"2026-09-21T09:00:35.917992Z"}}